星链-34466(STARLINK-34466)

导读 | 豆包AI

STARLINK-34466是美国太空探索技术公司SpaceX于2025年10月28日,在卡纳维拉尔角太空军基地通过猎鹰9号火箭执行Starlink 10-37任务时发射的星链卫星,它运行于近地轨道。作为星链全球卫星互联网星座的一员,它将助力为全球缺基础设施的偏远地区提供高速低延迟宽带互联网服务,推动星链网络扩容与覆盖完善。

基本信息
目录编号:
66226
目录名称:
STARLINK-34466
国际标识:
2025-244W
轨道中心:
EARTH
卫星名称:
星链-34466
卫星全名:
星链-34466(STARLINK-34466)
卫星状态:
在轨 (已飞行209 天)
发射日期:
2025-10-28 UTC
国别 :
美国 (US)
星等 :
--
轨道信息
数据来源 国际轨道数据
星历时间: 2026-05-24T13:12:09+0800
1天前
查看轨道信息
半长轴: 6850.207km
偏心率: 0.0002587
轨道倾角: 53.158°
近地点辐角 323.752°
升交点赤经 239.052°
平近点角 36.331°
近地点: 470.297km
远地点: 473.843km
周期: 94.041分钟
每日圈数: 15.312542
详细信息
固有亮度:
5
最大亮度:
2.5
卫星平台:
Starlink V1.0
覆盖范围:
全球
运营商:
太空探索技术公司
运营商所在国:
美国
制造商(研发单位):
太空探索技术公司
制造商所在国:
美国
使用方式:
暂无
卫星简介
Starlink 计划是 SpaceX 推出的全球卫星互联网项目,通过发射低轨道卫星,为全球尤其是偏远地区提供高速、低延迟的互联网服务。自 2019 年起,Starlink 已部署数千颗卫星,旨在缩小全球数字鸿沟,推动互联网普及。该项目还为军事、航空等行业提供通信支持,带来广泛经济效益。
2D轨道图
3D轨道图
轨道高度分析图
轨道倾角分析图
轨道综合分析图
查看轨道综合分析图